Cosmos 2297 - Orbit

View from above orbital plane
View from above orbital plane
View from above satellite
View from above satellite

Ground track
Ground track

The orbit data is extracted from the following two-line orbital elements,

1 23404U 94077A   13142.62142164  .00000198  00000-0  13069-3 0  4947
2 23404 071.0139 164.5287 0017197 249.6880 258.6796 14.13329990954025
Epoch (UTC): 22 May 2013 14:54:50
Eccentricity: 0.0017197
inclination: 71.0139°
perigee height: 835 km
apogee height: 860 km
right ascension of ascending node: 164.5287°
argument of perigee: 249.6880°
revolutions per day: 14.13329990
mean anomaly at epoch: 258.6796°
orbit number at epoch: 95402

The dashed part of the orbit path shows where the satellite is in the earth's shadow,  

Developed and maintained by Chris Peat, Heavens-Above GmbH. Please read the updated FAQ before sending e-mail. Imprint. DLR